This is the latest recevied weather packets stored in our database for station/object N3LF. If no packets are shown the sender has not sent any weather packets the latest 10 day(s).
| Time | Temp. | Humidity | Pressure | Rain* | Wind** | Luminosity | Snow |
|---|---|---|---|---|---|---|---|
| 1777076201 | 19.44° C | 99% | 1011.5 hPa | 0 mm | - | 3 W/m² | - |
| 1777075897 | 19.44° C | 99% | 1011.6 hPa | 0 mm | - | 4 W/m² | - |
| 1777075592 | 19.44° C | 99% | 1011.6 hPa | 0 mm | - | 5 W/m² | - |
| 1777075289 | 19.44° C | 99% | 1011.9 hPa | 0 mm | - | 5 W/m² | - |
| 1777074985 | 19.44° C | 99% | 1011.6 hPa | 0 mm | - | 6 W/m² | - |
| 1777074681 | 19.44° C | 99% | 1011.7 hPa | 0 mm | - | 7 W/m² | - |
| 1777074375 | 19.44° C | 99% | 1011.7 hPa | 0 mm | - | 7 W/m² | - |
| 1777074074 | 19.44° C | 99% | 1011.7 hPa | 0 mm | - | 11 W/m² | - |
| 1777073769 | 19.44° C | 99% | 1011.5 hPa | 0 mm | - | 18 W/m² | - |
| 1777073465 | 19.44° C | 99% | 1011.5 hPa | 0 mm | - | 22 W/m² | - |
| 1777073160 | 19.44° C | 99% | 1011.5 hPa | 0 mm | - | 26 W/m² | - |
| 1777072857 | 19.44° C | 99% | 1011.6 hPa | 0 mm | - | 29 W/m² | - |
| 1777072556 | 19.44° C | 99% | 1011.5 hPa | 0 mm | - | 27 W/m² | - |
| 1777072256 | 20° C | 99% | 1011.6 hPa | 0 mm | - | 24 W/m² | - |
| 1777071951 | 20° C | 99% | 1011.6 hPa | 0 mm | - | 26 W/m² | - |
| 1777071647 | 20° C | 99% | 1011.5 hPa | 0 mm | - | 27 W/m² | - |
| 1777071343 | 19.44° C | 99% | 1011.7 hPa | 0 mm | - | 27 W/m² | - |
| 1777071038 | 19.44° C | 99% | 1011.8 hPa | 0 mm | - | 28 W/m² | - |
| 1777070735 | 20° C | 99% | 1011.7 hPa | 0 mm | - | 43 W/m² | - |
| 1777070432 | 19.44° C | 99% | 1011.8 hPa | 0 mm | - | 38 W/m² | - |
| 1777070131 | 20° C | 99% | 1011.6 hPa | 0 mm | - | 41 W/m² | - |
| 1777069826 | 20° C | 99% | 1011.5 hPa | 0 mm | - | 50 W/m² | - |
| 1777069525 | 20° C | 99% | 1011.4 hPa | 0 mm | - | 53 W/m² | - |
| 1777069222 | 20° C | 99% | 1011.6 hPa | 1.27 mm | - | 34 W/m² | - |
| 1777068918 | 19.44° C | 99% | 1011.7 hPa | 1.27 mm | - | 29 W/m² | - |
* Rain latest hour (hover to see other rain measurements)
** Current wind speed in m/s (hover to see current wind gust speed)